When you browse on this site, cookies collect data to enhance your experience and personalize the content and advertising you see.
Visit our Privacy Policy to learn more. By continuing to use the site, you agree to this use of cookies and data.
  • In Austria
  • List of Countries
  • For 7 days
  • Water Temperature
  • Weather Map
  • News
  • Weather Widgets
  • user-avatar
    Login

    Hourly Weather Shaki

    Today, 16 December, Monday

    Time Temperature Precipitation Wind Pressure Humidity
    00:00 +6°C° 0 mm 0 mps 736 mmHg 69%
    01:00 +6°C° 0 mm 0 mps 736 mmHg 69%
    02:00 +6°C° 0 mm 0 mps 736 mmHg 70%
    03:00 +6°C° 0 mm 0 mps 736 mmHg 70%
    04:00 +6°C° 0 mm 0 mps 736 mmHg 71%
    05:00 +6°C° 0 mm 0 mps 736 mmHg 72%
    06:00 +6°C° 0 mm 0 mps 736 mmHg 73%
    07:00 +7°C° 0 mm 0 mps 737 mmHg 70%
    08:00 +7°C° 0 mm 0 mps 737 mmHg 67%
    09:00 +8°C° 0 mm 0 mps 738 mmHg 64%
    10:00 +9°C° 0 mm 0 mps 738 mmHg 62%
    11:00 +11°C° 0 mm 1 mps 738 mmHg 59%
    12:00 +12°C° 0 mm 1 mps 738 mmHg 57%
    13:00 +11°C° 0 mm 0 mps 738 mmHg 57%
    14:00 +12°C° 0 mm 0 mps 738 mmHg 58%
    15:00 +12°C° 0 mm 0 mps 738 mmHg 58%
    16:00 +11°C° 0 mm 0 mps 738 mmHg 60%
    17:00 +11°C° 0 mm 1 mps 739 mmHg 62%
    18:00 +10°C° 0 mm 1 mps 739 mmHg 64%
    19:00 +10°C° 0 mm 1 mps 740 mmHg 66%
    20:00 +9°C° 0 mm 2 mps 740 mmHg 67%
    21:00 +9°C° 0 mm 2 mps 741 mmHg 68%
    22:00 +9°C° 0.1 mm 2 mps 741 mmHg 73%
    23:00 +8°C° 0.1 mm 3 mps 741 mmHg 78%

    Tomorrow, 17 December, Tuesday

    Time Temperature Precipitation Wind Pressure Humidity
    00:00 +8°C° 0.1 mm 3 mps 742 mmHg 82%
    01:00 +8°C° 0 mm 2 mps 742 mmHg 83%
    02:00 +8°C° 0 mm 1 mps 742 mmHg 84%
    03:00 +7°C° 0 mm 0 mps 742 mmHg 84%
    04:00 +8°C° 0 mm 1 mps 742 mmHg 83%
    05:00 +7°C° 0 mm 1 mps 742 mmHg 83%
    06:00 +7°C° 0 mm 1 mps 742 mmHg 82%
    07:00 +8°C° 0 mm 1 mps 742 mmHg 79%
    08:00 +8°C° 0 mm 1 mps 742 mmHg 75%
    09:00 +9°C° 0 mm 1 mps 743 mmHg 72%
    10:00 +10°C° 0 mm 1 mps 742 mmHg 69%
    11:00 +11°C° 0 mm 1 mps 742 mmHg 66%
    12:00 +12°C° 0 mm 1 mps 742 mmHg 63%
    13:00 +12°C° 0 mm 1 mps 742 mmHg 64%
    14:00 +12°C° 0 mm 1 mps 742 mmHg 65%
    15:00 +12°C° 0 mm 1 mps 742 mmHg 66%
    16:00 +11°C° 0 mm 1 mps 742 mmHg 70%
    17:00 +10°C° 0 mm 1 mps 742 mmHg 74%
    18:00 +7°C° 0 mm 0 mps 743 mmHg 78%
    19:00 +7°C° 0 mm 0 mps 743 mmHg 78%
    20:00 +7°C° 0 mm 0 mps 743 mmHg 79%
    21:00 +7°C° 0 mm 1 mps 744 mmHg 80%
    22:00 +6°C° 0 mm 0 mps 744 mmHg 80%
    23:00 +6°C° 0 mm 0 mps 744 mmHg 80%

    Day after tomorrow, 18 December, Wednesday

    Time Temperature Precipitation Wind Pressure Humidity
    00:00 +6°C° 0 mm 0 mps 744 mmHg 80%
    01:00 +6°C° 0 mm 0 mps 744 mmHg 79%
    02:00 +7°C° 0 mm 1 mps 744 mmHg 78%
    03:00 +7°C° 0 mm 1 mps 744 mmHg 77%
    04:00 +6°C° 0 mm 1 mps 744 mmHg 77%
    05:00 +6°C° 0 mm 1 mps 744 mmHg 76%
    06:00 +5°C° 0 mm 2 mps 743 mmHg 75%
    07:00 +6°C° 0 mm 2 mps 743 mmHg 72%
    08:00 +7°C° 0 mm 2 mps 743 mmHg 68%
    09:00 +8°C° 0 mm 2 mps 743 mmHg 65%
    10:00 +9°C° 0 mm 2 mps 743 mmHg 61%
    11:00 +10°C° 0 mm 2 mps 743 mmHg 57%
    12:00 +12°C° 0 mm 3 mps 742 mmHg 53%
    13:00 +12°C° 0 mm 3 mps 742 mmHg 53%
    14:00 +13°C° 0 mm 2 mps 742 mmHg 53%
    15:00 +13°C° 0 mm 2 mps 741 mmHg 52%
    16:00 +12°C° 0 mm 2 mps 742 mmHg 54%
    17:00 +9°C° 0 mm 2 mps 742 mmHg 55%
    18:00 +9°C° 0 mm 1 mps 742 mmHg 57%
    19:00 +9°C° 0 mm 1 mps 742 mmHg 56%
    20:00 +9°C° 0 mm 1 mps 742 mmHg 56%
    21:00 +7°C° 0 mm 0 mps 742 mmHg 55%
    22:00 +8°C° 0 mm 1 mps 742 mmHg 55%
    23:00 +8°C° 0 mm 1 mps 742 mmHg 54%

    19 December, Thursday

    Time Temperature Precipitation Wind Pressure Humidity
    00:00 +8°C° 0 mm 1 mps 742 mmHg 54%
    01:00 +8°C° 0 mm 1 mps 742 mmHg 54%
    02:00 +8°C° 0 mm 1 mps 742 mmHg 54%
    03:00 +8°C° 0 mm 1 mps 742 mmHg 54%
    04:00 +7°C° 0 mm 1 mps 742 mmHg 55%
    05:00 +7°C° 0 mm 1 mps 741 mmHg 55%
    06:00 +7°C° 0 mm 1 mps 741 mmHg 55%
    07:00 +8°C° 0 mm 1 mps 742 mmHg 53%
    08:00 +9°C° 0 mm 1 mps 742 mmHg 51%
    09:00 +10°C° 0 mm 1 mps 742 mmHg 49%
    10:00 +11°C° 0 mm 1 mps 741 mmHg 47%
    11:00 +13°C° 0 mm 1 mps 741 mmHg 44%
    12:00 +14°C° 0 mm 1 mps 741 mmHg 41%
    13:00 +14°C° 0 mm 1 mps 741 mmHg 41%
    14:00 +14°C° 0 mm 1 mps 740 mmHg 41%
    15:00 +14°C° 0 mm 1 mps 740 mmHg 41%
    16:00 +13°C° 0 mm 1 mps 740 mmHg 42%
    17:00 +12°C° 0 mm 1 mps 740 mmHg 44%
    18:00 +10°C° 0 mm 1 mps 740 mmHg 45%
    19:00 +9°C° 0 mm 0 mps 740 mmHg 44%
    20:00 +9°C° 0 mm 0 mps 740 mmHg 44%
    21:00 +9°C° 0 mm 0 mps 740 mmHg 44%
    22:00 +10°C° 0 mm 1 mps 740 mmHg 43%
    23:00 +10°C° 0 mm 1 mps 740 mmHg 42%

    20 December, Friday

    Time Temperature Precipitation Wind Pressure Humidity
    00:00 +10°C° 0 mm 1 mps 740 mmHg 41%
    01:00 +9°C° 0 mm 1 mps 739 mmHg 41%
    02:00 +9°C° 0 mm 1 mps 739 mmHg 41%
    03:00 +8°C° 0 mm 2 mps 738 mmHg 41%
    04:00 +8°C° 0 mm 2 mps 738 mmHg 41%
    05:00 +8°C° 0 mm 2 mps 738 mmHg 41%
    06:00 +8°C° 0 mm 2 mps 738 mmHg 41%
    07:00 +10°C° 0 mm 1 mps 738 mmHg 40%
    08:00 +11°C° 0 mm 1 mps 738 mmHg 39%
    09:00 +12°C° 0 mm 1 mps 738 mmHg 38%
    10:00 +14°C° 0 mm 1 mps 737 mmHg 36%
    11:00 +15°C° 0 mm 1 mps 737 mmHg 34%
    12:00 +17°C° 0 mm 2 mps 737 mmHg 32%
    13:00 +17°C° 0 mm 2 mps 736 mmHg 33%
    14:00 +18°C° 0 mm 1 mps 736 mmHg 33%
    15:00 +18°C° 0 mm 1 mps 735 mmHg 34%
    16:00 +15°C° 0 mm 1 mps 735 mmHg 35%
    17:00 +14°C° 0 mm 1 mps 735 mmHg 36%
    18:00 +12°C° 0 mm 1 mps 735 mmHg 37%
    19:00 +12°C° 0 mm 1 mps 735 mmHg 37%
    20:00 +12°C° 0 mm 1 mps 735 mmHg 38%
    21:00 +11°C° 0 mm 1 mps 735 mmHg 38%
    22:00 +11°C° 0 mm 1 mps 735 mmHg 40%
    23:00 +11°C° 0 mm 1 mps 735 mmHg 41%

    21 December, Saturday

    Time Temperature Precipitation Wind Pressure Humidity
    00:00 +10°C° 0 mm 1 mps 735 mmHg 43%
    01:00 +10°C° 0 mm 1 mps 735 mmHg 43%
    02:00 +9°C° 0 mm 0 mps 734 mmHg 44%
    03:00 +8°C° 0 mm 0 mps 734 mmHg 44%
    04:00 +8°C° 0 mm 0 mps 734 mmHg 44%
    05:00 +8°C° 0 mm 0 mps 734 mmHg 44%
    06:00 +8°C° 0 mm 0 mps 734 mmHg 44%
    07:00 +9°C° 0 mm 0 mps 735 mmHg 43%
    08:00 +11°C° 0 mm 1 mps 735 mmHg 41%
    09:00 +12°C° 0 mm 1 mps 735 mmHg 40%
    10:00 +13°C° 0 mm 1 mps 735 mmHg 38%
    11:00 +14°C° 0 mm 1 mps 735 mmHg 37%
    12:00 +15°C° 0 mm 1 mps 735 mmHg 35%
    13:00 +15°C° 0 mm 1 mps 735 mmHg 37%
    14:00 +15°C° 0 mm 1 mps 735 mmHg 39%
    15:00 +13°C° 0 mm 0 mps 735 mmHg 41%
    16:00 +13°C° 0 mm 1 mps 735 mmHg 43%
    17:00 +12°C° 0 mm 1 mps 735 mmHg 44%
    18:00 +9°C° 0 mm 2 mps 736 mmHg 46%
    19:00 +9°C° 0 mm 2 mps 736 mmHg 47%
    20:00 +8°C° 0 mm 2 mps 736 mmHg 49%
    21:00 +8°C° 0 mm 3 mps 736 mmHg 50%
    22:00 +8°C° 0 mm 2 mps 737 mmHg 56%
    23:00 +7°C° 0 mm 2 mps 737 mmHg 61%
    Show more